W8SZ Weather Reports


Display with metric or nautical units.
time (UTC)temp
F
wind
direction
speed
MPH
gust
MPH
rain 1hr
in
rain 24hr
in
rain mn
in
humidity
%
barometer
mb
20180522174852 54 41 11.0 13.0 0.00 0.00 0.12 94 1014.6
20180522174355 53 41 11.0 14.0 0.00 0.00 0.12 94 1015.3
20180522173854 54 41 12.0 14.0 0.00 0.00 0.12 95 1015.0
20180522173342 54 41 9.0 12.0 0.00 0.00 0.12 97 1015.0
20180522172847 54 41 9.0 10.0 0.00 0.00 0.12 100 1015.2
20180522172347 54 41 9.0 10.0 0.00 0.00 0.12 100 1015.4
20180522171846 54 41 7.0 10.0 0.00 0.00 0.12 100 1015.2
20180522171354 55 41 8.0 9.0 0.00 0.00 0.12 100 1015.1
20180522170838 55 41 7.0 9.0 0.00 0.00 0.12 100 1014.8
20180522170417 56 41 7.0 9.0 0.00 0.00 0.12 100 1015.1
20180522165845 56 41 7.0 8.0 0.00 0.00 0.12 100 1015.2
20180522165344 56 41 6.0 7.0 0.00 0.00 0.12 100 1015.1
20180522164845 56 41 2.0 4.0 0.00 0.00 0.12 100 1014.8
20180522164345 55 41 0.0 4.0 0.00 0.00 0.12 100 1015.0
20180522163907 55 41 2.0 5.0 0.00 0.00 0.12 100 1015.1
20180522163350 55 41 1.0 5.0 0.00 0.00 0.12 100 1015.2
20180522162842 54 41 2.0 4.0 0.00 0.00 0.12 100 1015.1
20180522162400 54 41 2.0 4.0 0.00 0.00 0.12 100 1015.2
20180522161900 53 41 0.0 3.0 0.00 0.00 0.12 100 1015.2
20180522161415 53 41 1.0 2.0 0.00 0.00 0.12 100 1015.2
20180522160916 53 41 1.0 2.0 0.00 0.00 0.12 100 1015.3
20180522160355 52 41 0.0 3.0 0.00 0.00 0.12 100 1015.3
20180522155845 52 41 1.0 3.0 0.00 0.00 0.12 100 1015.1
20180522155351 52 41 1.0 3.0 0.00 0.00 0.12 100 1015.3
20180522154850 51 41 1.0 4.0 0.00 0.00 0.12 100 1015.1
20180522154417 51 41 1.0 5.0 0.00 0.00 0.12 100 1015.2
20180522153845 51 41 2.0 5.0 0.00 0.00 0.12 100 1015.0
20180522153352 50 41 2.0 6.0 0.00 0.00 0.12 100 1015.1
20180522152855 50 41 2.0 6.0 0.00 0.00 0.12 100 1015.0
20180522152339 50 41 2.0 7.0 0.00 0.00 0.12 100 1015.2
20180522151900 50 41 2.0 7.0 0.00 0.00 0.12 100 1015.0
20180522151343 50 41 3.0 7.0 0.00 0.00 0.12 100 1014.9
20180522150842 50 41 2.0 8.0 0.00 0.00 0.12 100 1015.1
20180522150404 50 41 4.0 8.0 0.00 0.00 0.12 100 1014.6
20180522145856 50 41 2.0 7.0 0.00 0.00 0.12 100 1014.7
20180522145337 49 41 4.0 8.0 0.00 0.00 0.12 100 1014.5
20180522144840 49 41 5.0 10.0 0.00 0.00 0.12 100 1014.4
20180522144343 49 41 7.0 11.0 0.00 0.00 0.12 100 1014.4
20180522143906 49 41 7.0 11.0 0.00 0.00 0.12 100 1014.9
20180522143338 49 41 7.0 9.0 0.00 0.00 0.12 100 1015.2
20180522142844 49 41 7.0 8.0 0.00 0.00 0.12 100 1014.9
20180522142349 49 41 6.0 9.0 0.00 0.00 0.12 100 1015.2
20180522141851 48 41 4.0 9.0 0.00 0.00 0.12 100 1015.4
20180522141338 48 41 4.0 0.0 0.00 0.00 0.12 100 1014.6
20180522140901 48 41 11.0 0.0 0.00 0.00 0.12 100 1014.7
20180522140347 48 41 8.0 0.0 0.00 0.00 0.12 100 1015.0
20180522135843 48 41 10.0 0.0 0.00 0.00 0.12 100 1014.6
20180522135344 48 41 10.0 0.0 0.00 0.00 0.12 100 1014.9
20180522134850 48 44 12.0 0.0 0.00 0.00 0.12 100 1014.6
20180522134355 48 50 9.0 0.0 0.00 0.00 0.12 100 1014.9
20180522133838 48 50 4.0 0.0 0.00 0.00 0.12 100 1014.9
20180522133408 48 50 6.0 0.0 0.00 0.00 0.12 100 1014.9
20180522132840 48 50 3.0 0.0 0.00 0.00 0.12 100 1014.5
20180522132341 48 50 7.0 0.0 0.00 0.00 0.12 100 1014.7
20180522131838 48 50 4.0 0.0 0.00 0.00 0.12 100 1014.8
20180522131342 49 50 8.0 0.0 0.00 0.00 0.12 100 1014.9
20180522130848 49 59 11.0 0.0 0.00 0.00 0.12 100 1014.9
20180522130357 49 88 7.0 0.0 0.00 0.00 0.12 100 1014.9
20180522125853 49 88 8.0 0.0 0.00 0.00 0.11 100 1014.9
20180522125340 49 88 6.0 0.0 0.00 0.00 0.11 100 1014.9
20180522124849 49 88 4.0 0.0 0.00 0.00 0.11 100 1015.3
20180522124334 49 88 6.0 0.0 0.00 0.00 0.11 100 1015.0
20180522123842 49 88 4.0 0.0 0.00 0.00 0.11 100 1015.0
20180522123348 49 107 5.0 0.0 0.00 0.00 0.11 100 1014.7
20180522122850 49 107 5.0 0.0 0.00 0.00 0.11 100 1014.8
20180522122339 49 107 1.0 0.0 0.00 0.00 0.11 100 1014.7
20180522121849 49 107 5.0 0.0 0.00 0.00 0.11 100 1014.6
20180522121337 49 107 3.0 0.0 0.00 0.00 0.11 100 1014.7
20180522120848 49 107 2.0 0.0 0.00 0.00 0.11 100 1014.7
20180522120407 49 107 3.0 0.0 0.00 0.00 0.11 100 1014.7
20180522115902 49 107 2.0 0.0 0.00 0.00 0.11 100 1014.6
20180522115349 49 107 3.0 0.0 0.00 0.00 0.11 100 1014.6
20180522114837 49 107 3.0 0.0 0.00 0.00 0.11 100 1014.7
20180522114345 49 107 5.0 0.0 0.00 0.00 0.11 100 1014.3
20180522113834 49 107 7.0 0.0 0.00 0.00 0.11 100 1014.3
20180522113343 49 108 4.0 0.0 0.00 0.00 0.11 100 1014.8
20180522112843 49 108 3.0 0.0 0.00 0.00 0.11 100 1014.4
20180522112350 49 108 5.0 0.0 0.00 0.00 0.11 100 1014.6
20180522111840 49 108 3.0 0.0 0.00 0.00 0.11 100 1014.7
20180522111349 49 108 5.0 0.0 0.00 0.00 0.11 100 1015.0
20180522110858 49 108 4.0 0.0 0.00 0.00 0.11 100 1014.3
20180522110346 49 108 5.0 0.0 0.00 0.00 0.11 100 1014.4
20180522105845 49 108 3.0 0.0 0.00 0.00 0.08 100 1014.3
20180522105354 48 108 4.0 0.0 0.00 0.00 0.08 100 1014.4
20180522104902 48 108 0.0 0.0 0.00 0.00 0.08 100 1014.8
20180522104349 48 108 0.0 0.0 0.00 0.00 0.08 100 1014.5
20180522103838 48 108 0.0 0.0 0.00 0.00 0.08 100 1014.6
20180522103346 48 108 0.0 0.0 0.00 0.00 0.08 100 1014.3
20180522102848 48 108 1.0 0.0 0.00 0.00 0.06 100 1014.6
20180522102356 48 108 2.0 0.0 0.00 0.00 0.06 100 1014.9
20180522101845 48 108 2.0 0.0 0.00 0.00 0.06 100 1014.5
20180522101333 48 108 2.0 0.0 0.00 0.00 0.06 100 1014.4
20180522100845 48 108 2.0 0.0 0.00 0.00 0.06 100 1014.8
20180522100353 47 108 2.0 0.0 0.00 0.00 0.06 100 1014.5
20180522095850 47 108 1.0 0.0 0.00 0.00 0.03 100 1014.7
20180522095358 47 108 1.0 0.0 0.00 0.00 0.03 100 1014.9
20180522094845 47 108 2.0 0.0 0.00 0.00 0.03 100 1014.6
20180522094331 47 108 3.0 0.0 0.00 0.00 0.03 100 1014.5
20180522093841 47 108 0.0 0.0 0.00 0.00 0.03 100 1014.9
20180522093349 47 108 2.0 0.0 0.00 0.00 0.03 100 1015.1
20180522092846 47 108 2.0 0.0 0.00 0.00 0.01 100 1015.3
20180522092334 47 108 0.0 0.0 0.00 0.00 0.01 100 1015.3
20180522091841 47 108 0.0 0.0 0.00 0.00 0.01 100 1015.1
20180522091346 47 108 1.0 0.0 0.00 0.00 0.01 100 1015.4
20180522090836 47 108 1.0 0.0 0.00 0.00 0.01 100 1015.3
20180522090343 47 108 2.0 0.0 0.00 0.00 0.01 100 1015.5
20180522085842 47 108 2.0 0.0 0.00 0.00 0.00 100 1015.2
20180522085348 47 108 3.0 0.0 0.00 0.00 0.00 100 1015.6
20180522084837 47 108 1.0 0.0 0.00 0.00 0.00 100 1015.5
20180522084346 47 108 1.0 0.0 0.00 0.00 0.00 99 1015.3
20180522083837 47 108 2.0 0.0 0.00 0.00 0.00 98 1015.7
20180522083348 47 108 2.0 0.0 0.00 0.00 0.00 97 1015.4
20180522082848 47 104 9.0 0.0 0.00 0.00 0.00 96 1015.4
20180522082334 47 84 7.0 0.0 0.00 0.00 0.00 96 1015.7
20180522081903 46 73 7.0 0.0 0.00 0.00 0.00 97 1015.4
20180522081345 46 70 3.0 0.0 0.00 0.00 0.00 98 1015.6
20180522080848 46 70 4.0 0.0 0.00 0.00 0.00 98 1015.6
20180522080350 46 70 3.0 0.0 0.00 0.00 0.00 98 1015.6
20180522075845 46 70 1.0 0.0 0.00 0.00 0.00 97 1015.6
20180522075348 46 70 3.0 0.0 0.00 0.00 0.00 96 1015.7
20180522074854 47 70 1.0 0.0 0.00 0.00 0.00 95 1015.7
20180522074339 47 70 0.0 0.0 0.00 0.00 0.00 94 1015.9
20180522073845 47 70 1.0 0.0 0.00 0.00 0.00 92 1015.5
20180522073348 48 70 1.0 0.0 0.00 0.00 0.00 87 1015.8
20180522072844 48 70 1.0 0.0 0.00 0.00 0.00 91 1015.8
20180522072406 48 70 0.0 0.0 0.00 0.00 0.00 88 1015.6
20180522071851 48 70 2.0 0.0 0.00 0.00 0.00 85 1016.2
20180522071337 48 70 4.0 0.0 0.00 0.00 0.00 85 1016.1
20180522070846 48 70 3.0 0.0 0.00 0.00 0.00 85 1015.6
20180522070352 49 70 7.0 0.0 0.00 0.00 0.00 85 1016.2
20180522065843 49 70 7.0 0.0 0.00 0.00 0.00 85 1016.3
20180522065341 49 70 7.0 0.0 0.00 0.00 0.00 86 1016.2
20180522064844 49 69 9.0 0.0 0.00 0.00 0.00 85 1016.3
20180522064350 48 40 5.0 0.0 0.00 0.00 0.00 89 1016.6
20180522063852 48 40 2.0 0.0 0.00 0.00 0.00 93 1015.6
20180522063359 48 40 2.0 0.0 0.00 0.00 0.00 91 1015.7
20180522062851 48 40 1.0 0.0 0.00 0.00 0.00 88 1016.1
20180522062354 47 40 2.0 0.0 0.00 0.00 0.00 96 1016.1
20180522061854 47 40 1.0 0.0 0.00 0.00 0.00 92 1016.1
20180522061339 47 40 4.0 0.0 0.00 0.00 0.00 96 1016.0
20180522060844 47 40 1.0 0.0 0.00 0.00 0.00 95 1015.9
20180522060349 47 40 1.0 0.0 0.00 0.00 0.00 95 1015.7
20180522055841 47 40 3.0 0.0 0.00 0.00 0.00 97 1016.0
20180522055340 47 40 0.0 0.0 0.00 0.00 0.00 95 1016.4
20180522054840 47 40 3.0 0.0 0.00 0.00 0.00 94 1016.0
20180522054338 47 40 4.0 0.0 0.00 0.00 0.00 97 1016.5
20180522053840 47 40 3.0 0.0 0.00 0.00 0.00 99 1016.6
20180522053346 47 40 2.0 0.0 0.00 0.00 0.00 99 1016.5
20180522052841 47 40 0.0 0.0 0.00 0.00 0.00 100 1016.7
20180522052341 47 40 0.0 0.0 0.00 0.00 0.00 100 1016.8
20180522051907 47 40 0.0 0.0 0.00 0.00 0.00 99 1016.6
20180522051350 47 40 0.0 0.0 0.00 0.00 0.00 98 1016.7
20180522050834 47 40 3.0 0.0 0.00 0.00 0.00 99 1016.8
20180522050400 47 40 3.0 0.0 0.00 0.00 0.00 100 1016.9
20180522045854 47 40 0.0 0.0 0.00 0.00 0.00 100 1016.9
20180522045336 47 40 1.0 0.0 0.00 0.00 0.00 99 1017.0
20180522044841 46 40 2.0 0.0 0.00 0.00 0.00 100 1017.0
20180522044344 46 40 1.0 0.0 0.00 0.00 0.00 100 1017.1
20180522043847 46 40 2.0 0.0 0.00 0.00 0.00 100 1017.0
20180522043351 46 40 0.0 0.0 0.00 0.00 0.00 99 1017.0
20180522042906 46 40 1.0 0.0 0.00 0.00 0.00 100 1017.0
20180522042351 46 40 1.0 0.0 0.00 0.00 0.00 100 1017.0
20180522041836 46 40 3.0 0.0 0.00 0.00 0.00 100 1017.4
20180522041341 46 40 0.0 0.0 0.00 0.00 0.00 99 1017.4
20180522040847 46 40 2.0 0.0 0.00 0.00 0.00 100 1017.6
20180522040352 46 40 3.0 0.0 0.00 0.00 0.00 100 1017.4
20180522035847 46 40 3.0 0.0 0.00 0.00 0.00 100 1017.7
20180522035349 47 40 0.0 0.0 0.00 0.00 0.00 100 1017.6
20180522034836 47 40 0.0 0.0 0.00 0.00 0.00 100 1017.6
20180522034339 46 40 0.0 0.0 0.00 0.00 0.00 100 1017.5
20180522033847 46 40 0.0 0.0 0.00 0.00 0.00 100 1017.7
20180522033354 46 40 3.0 0.0 0.00 0.00 0.00 100 1017.6
20180522032845 46 40 2.0 0.0 0.00 0.00 0.00 100 1017.7
20180522032350 46 40 2.0 0.0 0.00 0.00 0.00 100 1017.3
20180522031833 47 40 1.0 0.0 0.00 0.00 0.00 100 1017.6
20180522031341 47 40 0.0 0.0 0.00 0.00 0.00 100 1017.5
20180522030844 47 40 0.0 0.0 0.00 0.00 0.00 100 1017.9
20180522030351 47 40 2.0 0.0 0.00 0.00 0.00 100 1017.8
20180522025847 46 40 0.0 0.0 0.00 0.00 0.00 100 1017.7
20180522025354 46 40 0.0 0.0 0.00 0.00 0.00 100 1017.6
20180522024839 46 40 0.0 0.0 0.00 0.00 0.00 100 1017.7
20180522024342 46 40 1.0 0.0 0.00 0.00 0.00 100 1017.9
20180522023847 47 40 0.0 0.0 0.00 0.00 0.00 100 1017.9
20180522023414 47 40 0.0 0.0 0.00 0.00 0.00 100 1017.8
20180522022850 47 40 0.0 0.0 0.00 0.00 0.00 100 1018.2
20180522022336 47 40 1.0 0.0 0.00 0.00 0.00 100 1017.6
20180522021842 47 40 3.0 0.0 0.00 0.00 0.00 99 1018.0
20180522021340 47 40 1.0 0.0 0.00 0.00 0.00 99 1017.6
20180522020845 47 40 2.0 0.0 0.00 0.00 0.00 98 1018.1
20180522020350 47 40 3.0 0.0 0.00 0.00 0.00 99 1018.2
20180522015843 47 40 4.0 0.0 0.00 0.00 0.00 98 1018.0
20180522015347 47 40 9.0 0.0 0.00 0.00 0.00 100 1018.2
20180522014851 47 40 2.0 0.0 0.00 0.00 0.00 100 1018.0
20180522014357 47 40 3.0 0.0 0.00 0.00 0.00 100 1018.3
20180522013843 47 40 2.0 0.0 0.00 0.00 0.00 100 1018.2
20180522013352 47 40 0.0 0.0 0.00 0.00 0.00 100 1018.2
20180522012903 48 40 0.0 0.0 0.00 0.00 0.00 100 1018.6
20180522012406 48 40 0.0 0.0 0.00 0.00 0.00 100 1018.4
20180522011844 48 40 1.0 0.0 0.00 0.00 0.00 100 1018.7
20180522011349 48 40 3.0 0.0 0.00 0.00 0.00 100 1019.2
20180522010854 48 40 0.0 0.0 0.00 0.00 0.00 100 1018.7
20180522010401 48 40 2.0 0.0 0.00 0.00 0.00 100 1019.1
20180522005853 48 40 2.0 0.0 0.00 0.00 0.00 100 1019.2
20180522005338 48 40 0.0 0.0 0.00 0.00 0.00 99 1018.9
20180522004844 49 40 0.0 0.0 0.00 0.00 0.00 99 1019.0
20180522004349 49 40 0.0 0.0 0.00 0.00 0.00 99 1019.3
20180522003852 49 40 2.0 0.0 0.00 0.00 0.00 98 1018.7
20180522003358 49 40 0.0 0.0 0.00 0.00 0.00 97 1018.9
20180522002852 50 40 0.0 0.0 0.00 0.00 0.00 96 1018.9
20180522002353 50 40 0.0 0.0 0.00 0.00 0.00 95 1018.9
20180522001853 50 40 0.0 0.0 0.00 0.00 0.00 94 1018.9
20180522001359 50 40 1.0 0.0 0.00 0.00 0.00 92 1019.0
20180522000917 51 40 1.0 0.0 0.00 0.00 0.00 90 1019.3
20180522000400 51 40 0.0 0.0 0.00 0.00 0.00 90 1019.3
20180521235852 51 40 0.0 0.0 0.00 0.00 0.00 89 1018.8
20180521235351 51 40 0.0 0.0 0.00 0.00 0.00 88 1019.1
20180521234854 51 40 1.0 0.0 0.00 0.00 0.00 87 1019.0
20180521234338 52 40 2.0 0.0 0.00 0.00 0.00 88 1019.0
20180521233841 52 40 1.0 0.0 0.00 0.00 0.00 87 1019.1
20180521233407 52 40 0.0 0.0 0.00 0.00 0.00 88 1018.9
20180521232838 52 40 3.0 0.0 0.00 0.00 0.00 85 1019.2
20180521232341 52 40 4.0 0.0 0.00 0.00 0.00 88 1019.1
20180521231907 52 40 3.0 0.0 0.00 0.00 0.00 87 1019.6
20180521231344 52 40 3.0 0.0 0.00 0.00 0.00 85 1019.5
20180521230905 52 40 1.0 0.0 0.00 0.00 0.00 86 1019.5
20180521230348 52 40 2.0 0.0 0.00 0.00 0.00 88 1019.0
20180521225842 52 40 2.0 0.0 0.00 0.00 0.00 89 1019.1
20180521225340 52 40 3.0 0.0 0.00 0.00 0.00 88 1019.1
20180521224841 52 40 4.0 0.0 0.00 0.00 0.00 87 1019.5
20180521224344 52 40 3.0 0.0 0.00 0.00 0.00 87 1019.2
20180521223849 52 40 2.0 0.0 0.00 0.00 0.00 85 1019.6
20180521223354 52 40 1.0 0.0 0.00 0.00 0.00 85 1019.7
20180521222843 52 40 0.0 0.0 0.00 0.00 0.00 86 1019.4
20180521222342 52 40 2.0 0.0 0.00 0.00 0.00 84 1019.4
20180521221843 52 40 2.0 0.0 0.00 0.00 0.00 83 1019.6
20180521221339 52 40 4.0 0.0 0.00 0.00 0.00 83 1019.5
20180521220838 52 40 4.0 0.0 0.00 0.00 0.00 82 1019.4
20180521220404 52 40 3.0 0.0 0.00 0.00 0.00 82 1020.0
20180521215856 52 40 6.0 0.0 0.00 0.00 0.00 82 1019.7
20180521215341 52 40 3.0 0.0 0.00 0.00 0.00 83 1019.6
20180521214841 52 40 3.0 0.0 0.00 0.00 0.00 83 1019.9
20180521214344 52 40 4.0 0.0 0.00 0.00 0.00 82 1020.1
20180521213847 52 40 2.0 0.0 0.00 0.00 0.00 79 1019.6
20180521213353 52 40 1.0 0.0 0.00 0.00 0.00 80 1019.9
20180521212841 52 40 3.0 0.0 0.00 0.00 0.00 80 1020.0
20180521212342 52 40 3.0 0.0 0.00 0.00 0.00 79 1020.0
20180521211904 52 40 3.0 0.0 0.00 0.00 0.00 78 1020.1
20180521211341 52 40 3.0 0.0 0.00 0.00 0.00 80 1020.3
20180521210843 52 40 3.0 0.0 0.00 0.00 0.00 81 1020.4
20180521210407 52 40 7.0 0.0 0.00 0.00 0.00 82 1020.3
20180521205838 52 40 4.0 0.0 0.00 0.00 0.00 84 1021.0
20180521205341 52 40 3.0 0.0 0.00 0.00 0.00 83 1020.3
20180521204844 53 40 3.0 0.0 0.00 0.00 0.00 82 1020.3
20180521204345 53 40 3.0 0.0 0.00 0.00 0.00 83 1020.4
20180521203847 53 40 3.0 0.0 0.00 0.00 0.00 84 1020.2
20180521203355 53 40 4.0 0.0 0.00 0.00 0.00 83 1020.3
20180521202844 53 40 3.0 0.0 0.00 0.00 0.00 84 1020.6
20180521202347 53 40 5.0 0.0 0.00 0.00 0.00 83 1020.5
20180521201851 53 40 5.0 0.0 0.00 0.00 0.00 84 1020.7
20180521201347 53 40 4.0 0.0 0.00 0.00 0.00 83 1020.6
20180521200850 53 40 6.0 0.0 0.00 0.00 0.00 84 1020.7
20180521200356 53 40 6.0 0.0 0.00 0.00 0.00 83 1020.5
20180521195847 53 40 5.0 0.0 0.00 0.00 0.00 82 1021.4
20180521195351 53 40 8.0 0.0 0.00 0.00 0.00 83 1021.0
20180521194851 53 40 6.0 0.0 0.00 0.00 0.00 83 1021.1
20180521194354 53 40 6.0 0.0 0.00 0.00 0.00 84 1021.0
20180521193854 53 40 5.0 0.0 0.00 0.00 0.00 85 1021.2
20180521193400 52 40 8.0 0.0 0.00 0.00 0.00 86 1021.5
20180521192853 52 40 6.0 0.0 0.00 0.00 0.00 85 1021.3
20180521192354 52 40 6.0 0.0 0.00 0.00 0.00 86 1021.5
20180521191835 52 40 6.0 0.0 0.00 0.00 0.00 87 1021.6
20180521191341 52 40 5.0 0.0 0.00 0.00 0.00 88 1021.3
20180521190843 52 40 6.0 0.0 0.00 0.00 0.00 87 1021.5
20180521190401 52 40 4.0 0.0 0.00 0.00 0.00 88 1021.4
20180521185849 52 40 5.0 0.0 0.00 0.00 0.00 88 1021.8
20180521185410 52 40 4.0 0.0 0.00 0.00 0.00 89 1021.4
20180521184912 52 40 5.0 0.0 0.00 0.00 0.00 87 1021.6
20180521184418 52 40 6.0 0.0 0.00 0.00 0.00 89 1021.7
20180521183839 52 40 7.0 0.0 0.00 0.00 0.00 88 1021.9
20180521183405 53 40 5.0 0.0 0.00 0.00 0.00 89 1021.6
20180521182856 52 40 5.0 0.0 0.00 0.00 0.00 89 1021.8
20180521182338 52 40 5.0 0.0 0.00 0.00 0.00 91 1021.9
20180521181841 52 40 5.0 0.0 0.00 0.00 0.00 92 1021.9
20180521181340 52 40 6.0 0.0 0.00 0.00 0.00 92 1021.7
20180521180843 52 40 6.0 0.0 0.00 0.00 0.00 92 1021.8
20180521180407 52 40 5.0 0.0 0.00 0.00 0.00 91 1022.5
20180521175838 52 40 3.0 0.0 0.00 0.00 0.00 90 1021.7
20180521175342 52 40 4.0 0.0 0.00 0.00 0.00 92 1022.1